Torna al catalogo

COSMOS 2251 DEB

AttivoVLEO
NORAD 35996·DEBRIS·🇷🇺 Russia

Lanciato Jun 16, 1993 da Plesetsk Cosmodrome

Loading…

Prossimi Passaggi (prossime 24 ore)

TLE

AggiornatoSource: Space-Track

Epoca: Sep 14, 2026, 08:08 UTC

1 35996U 93036AWN 26257.33907170  .00007501  00000-0  37906-3 0  9996
2 35996  74.0235 252.0628 0084079 271.2898  87.8665 15.14130193764910

Traccia COSMOS 2251 DEB in tempo reale con AllMySat

Download on the App Store